Time,TemperatureF,DewpointF,PressureIn,WindDirection,WindDirectionDegrees,WindSpeedMPH,WindSpeedGustMPH,Humidity,HourlyPrecipIn,Conditions,Clouds,dailyrainin,SoftwareType,DateUTC
2013-04-21 00:01:00,38.9,17.7,30.23,NW,317,9.4,17.3,42,0.00,CLR,,0.00,WeatherDisplay:10.37,2013-04-21 04:01:00,
2013-04-21 00:02:00,38.9,18.3,30.23,NNW,341,9.7,13.8,43,0.00,CLR,,0.00,WeatherDisplay:10.37,2013-04-21 04:02:00,
2013-04-21 00:07:00,38.8,17.6,30.24,NW,309,9.4,18.4,42,0.00,CLR,,0.00,WeatherDisplay:10.37,2013-04-21 04:07:00,
2013-04-21 00:12:00,38.6,18.0,30.24,West,272,11.6,17.3,43,0.00,CLR,,0.00,WeatherDisplay:10.37,2013-04-21 04:12:00,
2013-04-21 00:17:00,38.5,18.4,30.24,WSW,252,7.2,12.7,44,0.00,CLR,,0.00,WeatherDisplay:10.37,2013-04-21 04:17:00,
2013-04-21 00:22:00,38.2,18.2,30.24,West,264,11.1,17.3,44,0.00,CLR,,0.00,WeatherDisplay:10.37,2013-04-21 04:22:00,
2013-04-21 00:27:00,38.0,18.5,30.24,NNW,333,7.6,11.5,45,0.00,CLR,,0.00,WeatherDisplay:10.37,2013-04-21 04:27:00,
2013-04-21 00:32:00,37.9,17.9,30.25,West,281,9.0,13.8,44,0.00,CLR,,0.00,WeatherDisplay:10.37,2013-04-21 04:32:00,
2013-04-21 00:37:00,37.7,18.2,30.25,WNW,289,9.9,15.0,45,0.00,CLR,,0.00,WeatherDisplay:10.37,2013-04-21 04:37:00,
2013-04-21 00:42:00,37.6,18.7,30.26,WNW,282,5.9,9.2,46,0.00,CLR,,0.00,WeatherDisplay:10.37,2013-04-21 04:42:00,
2013-04-21 00:47:00,37.5,18.6,30.26,WNW,286,7.1,11.5,46,0.00,CLR,,0.00,WeatherDisplay:10.37,2013-04-21 04:47:00,
2013-04-21 00:52:00,37.2,18.8,30.26,West,266,4.3,8.1,47,0.00,CLR,,0.00,WeatherDisplay:10.37,2013-04-21 04:52:00,
2013-04-21 00:57:00,37.0,18.6,30.26,North,8,9.3,13.8,47,0.00,CLR,,0.00,WeatherDisplay:10.37,2013-04-21 04:57:00,
2013-04-21 01:02:00,36.9,18.5,30.26,West,269,5.6,11.5,47,0.00,FEW,,0.00,WeatherDisplay:10.37,2013-04-21 05:02:00,
2013-04-21 01:07:00,36.7,18.3,30.26,NW,307,2.1,8.1,47,0.00,FEW,,0.00,WeatherDisplay:10.37,2013-04-21 05:07:00,
2013-04-21 01:12:00,36.6,18.7,30.26,NW,306,2.9,6.0,48,0.00,FEW,,0.00,WeatherDisplay:10.37,2013-04-21 05:12:00,
2013-04-21 01:17:00,36.3,18.0,30.27,West,262,1.7,4.6,47,0.00,FEW,,0.00,WeatherDisplay:10.37,2013-04-21 05:17:00,
2013-04-21 01:22:00,36.3,18.5,30.27,WNW,290,1.8,3.5,48,0.00,FEW,,0.00,WeatherDisplay:10.37,2013-04-21 05:22:00,
2013-04-21 01:27:00,36.0,18.7,30.28,West,261,1.2,2.3,49,0.00,FEW,,0.00,WeatherDisplay:10.37,2013-04-21 05:27:00,
2013-04-21 01:32:00,35.9,18.6,30.28,WNW,283,6.0,6.9,49,0.00,FEW,,0.00,WeatherDisplay:10.37,2013-04-21 05:32:00,
2013-04-21 01:37:00,35.7,18.4,30.28,WNW,296,3.6,5.8,49,0.00,FEW,,0.00,WeatherDisplay:10.37,2013-04-21 05:37:00,
2013-04-21 01:42:00,35.6,18.8,30.28,NNW,330,2.5,5.8,50,0.00,FEW,,0.00,WeatherDisplay:10.37,2013-04-21 05:42:00,
2013-04-21 01:47:00,35.6,18.3,30.28,West,261,4.4,8.0,49,0.00,FEW,,0.00,WeatherDisplay:10.37,2013-04-21 05:47:00,
2013-04-21 01:52:00,35.6,18.8,30.28,NW,310,3.3,5.8,50,0.00,FEW,,0.00,WeatherDisplay:10.37,2013-04-21 05:52:00,
2013-04-21 01:57:00,35.5,18.7,30.29,NW,316,3.5,6.9,50,0.00,FEW,,0.00,WeatherDisplay:10.37,2013-04-21 05:57:00,
2013-04-21 02:02:00,35.3,18.5,30.29,WNW,297,6.9,10.4,50,0.00,FEW,,0.00,WeatherDisplay:10.37,2013-04-21 06:02:00,
2013-04-21 02:07:00,35.2,18.9,30.28,WNW,302,5.1,6.9,51,0.00,FEW,,0.00,WeatherDisplay:10.37,2013-04-21 06:07:00,
2013-04-21 02:12:00,35.0,18.7,30.28,NW,313,6.0,10.4,51,0.00,FEW,,0.00,WeatherDisplay:10.37,2013-04-21 06:12:00,
2013-04-21 02:17:00,34.9,18.6,30.29,WNW,299,5.7,10.4,51,0.00,FEW,,0.00,WeatherDisplay:10.37,2013-04-21 06:17:00,
2013-04-21 02:22:00,34.7,18.4,30.29,NW,306,3.6,6.9,51,0.00,FEW,,0.00,WeatherDisplay:10.37,2013-04-21 06:22:00,
2013-04-21 02:27:00,34.6,18.8,30.29,WNW,292,5.3,6.9,52,0.00,FEW,,0.00,WeatherDisplay:10.37,2013-04-21 06:27:00,
2013-04-21 02:32:00,34.4,18.6,30.29,West,271,2.4,4.6,52,0.00,FEW,,0.00,WeatherDisplay:10.37,2013-04-21 06:32:00,
2013-04-21 02:37:00,34.4,18.6,30.30,NW,314,3.6,5.0,52,0.00,FEW,,0.00,WeatherDisplay:10.37,2013-04-21 06:37:00,
2013-04-21 02:42:00,34.3,18.0,30.30,NW,324,4.0,6.9,51,0.00,FEW,,0.00,WeatherDisplay:10.37,2013-04-21 06:42:00,
2013-04-21 02:47:00,34.1,17.8,30.30,WNW,297,1.8,3.5,51,0.00,FEW,,0.00,WeatherDisplay:10.37,2013-04-21 06:47:00,
2013-04-21 02:52:00,34.0,18.2,30.30,WNW,290,0.3,2.3,52,0.00,FEW,,0.00,WeatherDisplay:10.37,2013-04-21 06:52:00,
2013-04-21 02:57:00,33.7,18.4,30.30,WNW,282,1.4,3.5,53,0.00,FEW,,0.00,WeatherDisplay:10.37,2013-04-21 06:57:00,
2013-04-21 03:02:00,33.4,17.6,30.31,NNW,334,0.3,1.2,52,0.00,CLR,,0.00,WeatherDisplay:10.37,2013-04-21 07:02:00,
2013-04-21 03:07:00,33.2,17.9,30.31,WNW,285,0.9,3.5,53,0.00,CLR,,0.00,WeatherDisplay:10.37,2013-04-21 07:07:00,
2013-04-21 03:12:00,32.9,18.5,30.31,WSW,254,1.6,3.5,55,0.00,CLR,,0.00,WeatherDisplay:10.37,2013-04-21 07:12:00,
2013-04-21 03:17:00,32.6,17.8,30.31,WNW,290,1.0,2.3,54,0.00,CLR,,0.00,WeatherDisplay:10.37,2013-04-21 07:17:00,
2013-04-21 03:22:00,32.5,18.1,30.32,NW,324,1.5,2.3,55,0.00,CLR,,0.00,WeatherDisplay:10.37,2013-04-21 07:22:00,
2013-04-21 03:27:00,32.5,18.1,30.32,WNW,285,2.5,4.6,55,0.00,CLR,,0.00,WeatherDisplay:10.37,2013-04-21 07:27:00,
2013-04-21 03:32:00,32.4,18.0,30.33,WSW,252,2.1,4.6,55,0.00,CLR,,0.00,WeatherDisplay:10.37,2013-04-21 07:32:00,
2013-04-21 03:37:00,32.1,18.2,30.33,WSW,255,1.1,2.3,56,0.00,CLR,,0.00,WeatherDisplay:10.37,2013-04-21 07:37:00,
2013-04-21 03:42:00,31.9,18.0,30.33,WNW,285,0.5,1.2,56,0.00,CLR,,0.00,WeatherDisplay:10.37,2013-04-21 07:42:00,
2013-04-21 03:47:00,31.8,17.9,30.34,West,276,2.4,4.0,56,0.00,CLR,,0.00,WeatherDisplay:10.37,2013-04-21 07:47:00,
2013-04-21 03:52:00,31.8,17.9,30.34,NW,305,1.8,3.5,56,0.00,CLR,,0.00,WeatherDisplay:10.37,2013-04-21 07:52:00,
2013-04-21 03:57:00,31.6,17.7,30.34,WNW,300,1.3,3.5,56,0.00,CLR,,0.00,WeatherDisplay:10.37,2013-04-21 07:57:00,
2013-04-21 04:02:00,31.6,18.1,30.34,WNW,300,2.3,5.8,57,0.00,FEW,,0.00,WeatherDisplay:10.37,2013-04-21 08:02:00,
2013-04-21 04:07:00,31.5,18.0,30.34,NW,307,4.0,5.8,57,0.00,FEW,,0.00,WeatherDisplay:10.37,2013-04-21 08:07:00,
2013-04-21 04:12:00,31.8,17.9,30.34,NW,316,4.9,6.9,56,0.00,FEW,,0.00,WeatherDisplay:10.37,2013-04-21 08:12:00,
2013-04-21 04:17:00,32.1,17.7,30.34,WNW,290,2.8,4.6,55,0.00,FEW,,0.00,WeatherDisplay:10.37,2013-04-21 08:17:00,
2013-04-21 04:22:00,32.2,17.8,30.35,WNW,297,2.8,4.6,55,0.00,FEW,,0.00,WeatherDisplay:10.37,2013-04-21 08:22:00,
2013-04-21 04:27:00,32.2,18.2,30.35,NW,313,5.3,8.1,56,0.00,FEW,,0.00,WeatherDisplay:10.37,2013-04-21 08:27:00,
2013-04-21 04:32:00,32.2,17.8,30.35,NNW,333,5.1,6.9,55,0.00,FEW,,0.00,WeatherDisplay:10.37,2013-04-21 08:32:00,
2013-04-21 04:37:00,32.2,17.8,30.35,North,353,4.4,9.0,55,0.00,FEW,,0.00,WeatherDisplay:10.37,2013-04-21 08:37:00,
2013-04-21 04:42:00,32.4,18.0,30.36,WSW,257,8.0,12.7,55,0.00,FEW,,0.00,WeatherDisplay:10.37,2013-04-21 08:42:00,
2013-04-21 04:47:00,32.5,18.1,30.36,NW,307,6.2,11.5,55,0.00,FEW,,0.00,WeatherDisplay:10.37,2013-04-21 08:47:00,
2013-04-21 04:52:00,32.9,18.5,30.36,NW,309,5.0,11.5,55,0.00,FEW,,0.00,WeatherDisplay:10.37,2013-04-21 08:52:00,
2013-04-21 04:57:00,33.1,18.7,30.36,NW,310,5.0,10.4,55,0.00,FEW,,0.00,WeatherDisplay:10.37,2013-04-21 08:57:00,
2013-04-21 05:02:00,33.2,18.8,30.37,North,0,4.2,9.0,55,0.00,OVC,,0.00,WeatherDisplay:10.37,2013-04-21 09:02:00,
2013-04-21 05:07:00,33.7,18.8,30.37,NW,314,6.1,8.1,54,0.00,OVC,,0.00,WeatherDisplay:10.37,2013-04-21 09:07:00,
2013-04-21 05:12:00,34.0,18.6,30.37,NW,309,3.1,7.0,53,0.00,OVC,,0.00,WeatherDisplay:10.37,2013-04-21 09:12:00,
2013-04-21 05:17:00,34.1,19.2,30.37,NW,309,4.0,9.2,54,0.00,OVC,,0.00,WeatherDisplay:10.37,2013-04-21 09:17:00,
2013-04-21 05:22:00,34.1,19.2,30.37,WNW,299,3.9,5.8,54,0.00,OVC,,0.00,WeatherDisplay:10.37,2013-04-21 09:22:00,
2013-04-21 05:27:00,34.3,18.9,30.37,NNW,327,8.7,11.5,53,0.00,OVC,,0.00,WeatherDisplay:10.37,2013-04-21 09:27:00,
2013-04-21 05:32:00,34.3,18.9,30.38,NW,316,6.9,11.5,53,0.00,OVC,,0.00,WeatherDisplay:10.37,2013-04-21 09:32:00,
2013-04-21 05:37:00,34.3,18.9,30.38,West,278,4.6,8.1,53,0.00,OVC,,0.00,WeatherDisplay:10.37,2013-04-21 09:37:00,
2013-04-21 05:42:00,34.3,19.4,30.39,NW,319,7.4,12.7,54,0.00,OVC,,0.00,WeatherDisplay:10.37,2013-04-21 09:42:00,
2013-04-21 05:47:00,34.0,19.1,30.39,WNW,293,6.2,11.5,54,0.00,OVC,,0.00,WeatherDisplay:10.37,2013-04-21 09:47:00,
2013-04-21 05:52:00,34.0,18.6,30.39,NNW,344,4.2,6.9,53,0.00,OVC,,0.00,WeatherDisplay:10.37,2013-04-21 09:52:00,
2013-04-21 05:57:00,33.8,18.5,30.39,NW,320,5.4,10.4,53,0.00,OVC,,0.00,WeatherDisplay:10.37,2013-04-21 09:57:00,
2013-04-21 06:02:00,33.8,18.0,30.40,NNW,329,2.6,5.8,52,0.00,OVC,,0.00,WeatherDisplay:10.37,2013-04-21 10:02:00,
2013-04-21 06:07:00,33.8,18.0,30.40,WNW,283,6.1,10.0,52,0.00,OVC,,0.00,WeatherDisplay:10.37,2013-04-21 10:07:00,
2013-04-21 06:12:00,33.8,18.0,30.41,NW,305,2.8,6.0,52,0.00,OVC,,0.00,WeatherDisplay:10.37,2013-04-21 10:12:00,
2013-04-21 06:17:00,33.8,18.0,30.42,WNW,302,1.9,3.5,52,0.00,OVC,,0.00,WeatherDisplay:10.37,2013-04-21 10:17:00,
2013-04-21 06:22:00,33.7,18.4,30.43,NW,312,1.7,2.3,53,0.00,OVC,,0.00,WeatherDisplay:10.37,2013-04-21 10:22:00,
2013-04-21 06:27:00,33.7,18.8,30.43,WNW,292,4.5,6.9,54,0.00,OVC,,0.00,WeatherDisplay:10.37,2013-04-21 10:27:00,
2013-04-21 06:32:00,33.5,18.2,30.43,WNW,292,6.2,10.4,53,0.00,OVC,,0.00,WeatherDisplay:10.37,2013-04-21 10:32:00,
2013-04-21 06:37:00,33.7,18.8,30.43,North,350,6.2,8.1,54,0.00,OVC,,0.00,WeatherDisplay:10.37,2013-04-21 10:37:00,
2013-04-21 06:42:00,33.8,18.5,30.44,NW,307,1.8,3.5,53,0.00,OVC,,0.00,WeatherDisplay:10.37,2013-04-21 10:42:00,
2013-04-21 06:47:00,34.0,18.6,30.44,NW,319,2.2,3.5,53,0.00,OVC,,0.00,WeatherDisplay:10.37,2013-04-21 10:47:00,
2013-04-21 06:52:00,34.0,18.2,30.45,WNW,297,2.8,5.8,52,0.00,OVC,,0.00,WeatherDisplay:10.37,2013-04-21 10:52:00,
2013-04-21 06:57:00,34.3,18.5,30.45,NW,316,4.7,8.1,52,0.00,OVC,,0.00,WeatherDisplay:10.37,2013-04-21 10:57:00,
2013-04-21 07:02:00,34.9,18.1,30.46,North,4,2.3,3.5,50,0.00,OVC,,0.00,WeatherDisplay:10.37,2013-04-21 11:02:00,
2013-04-21 07:07:00,35.3,18.0,30.46,North,2,7.3,12.7,49,0.00,OVC,,0.00,WeatherDisplay:10.37,2013-04-21 11:07:00,
2013-04-21 07:12:00,35.3,17.5,30.46,NW,323,4.6,10.0,48,0.00,OVC,,0.00,WeatherDisplay:10.37,2013-04-21 11:12:00,
2013-04-21 07:17:00,35.3,18.0,30.47,NNW,329,6.7,11.5,49,0.00,OVC,,0.00,WeatherDisplay:10.37,2013-04-21 11:17:00,
2013-04-21 07:22:00,35.7,17.9,30.47,WNW,303,7.1,12.7,48,0.00,OVC,,0.00,WeatherDisplay:10.37,2013-04-21 11:22:00,
2013-04-21 07:27:00,35.9,18.1,30.47,North,358,7.7,11.0,48,0.00,OVC,,0.00,WeatherDisplay:10.37,2013-04-21 11:27:00,
2013-04-21 07:32:00,35.7,17.9,30.47,NNW,345,4.5,8.1,48,0.00,OVC,,0.00,WeatherDisplay:10.37,2013-04-21 11:32:00,
2013-04-21 07:37:00,35.9,18.1,30.47,NW,319,4.2,6.9,48,0.00,OVC,,0.00,WeatherDisplay:10.37,2013-04-21 11:37:00,
2013-04-21 07:42:00,36.5,18.6,30.48,NNW,329,5.2,10.4,48,0.00,OVC,,0.00,WeatherDisplay:10.37,2013-04-21 11:42:00,
2013-04-21 07:47:00,37.2,19.3,30.48,NW,324,3.8,11.5,48,0.00,OVC,,0.00,WeatherDisplay:10.37,2013-04-21 11:47:00,
2013-04-21 07:52:00,37.9,19.4,30.48,NW,309,9.1,13.8,47,0.00,OVC,,0.00,WeatherDisplay:10.37,2013-04-21 11:52:00,
2013-04-21 07:57:00,38.3,19.3,30.48,WNW,297,10.8,13.8,46,0.00,OVC,,0.00,WeatherDisplay:10.37,2013-04-21 11:57:00,
2013-04-21 08:02:00,38.8,19.2,30.49,WNW,300,8.3,11.5,45,0.00,CLR,,0.00,WeatherDisplay:10.37,2013-04-21 12:02:00,
2013-04-21 08:07:00,38.8,20.3,30.49,NNW,331,7.5,11.5,47,0.00,CLR,,0.00,WeatherDisplay:10.37,2013-04-21 12:07:00,
2013-04-21 08:12:00,39.2,20.1,30.50,NNW,347,5.8,10.4,46,0.00,CLR,,0.00,WeatherDisplay:10.37,2013-04-21 12:12:00,
2013-04-21 08:17:00,39.3,19.7,30.50,North,4,8.2,17.3,45,0.00,CLR,,0.00,WeatherDisplay:10.37,2013-04-21 12:17:00,
2013-04-21 08:22:00,38.5,19.0,30.50,North,358,5.1,10.4,45,0.00,CLR,,0.00,WeatherDisplay:10.37,2013-04-21 12:22:00,
2013-04-21 08:27:00,38.2,19.2,30.50,NNW,334,4.8,6.9,46,0.00,CLR,,0.00,WeatherDisplay:10.37,2013-04-21 12:27:00,
2013-04-21 08:32:00,38.5,19.0,30.51,North,353,8.1,12.7,45,0.00,CLR,,0.00,WeatherDisplay:10.37,2013-04-21 12:32:00,
2013-04-21 08:37:00,38.8,18.7,30.51,NNE,19,8.9,13.0,44,0.00,CLR,,0.00,WeatherDisplay:10.37,2013-04-21 12:37:00,
2013-04-21 08:42:00,38.8,17.6,30.51,NW,324,7.2,12.7,42,0.00,CLR,,0.00,WeatherDisplay:10.37,2013-04-21 12:42:00,
2013-04-21 08:47:00,39.3,19.2,30.51,NNW,345,9.2,12.7,44,0.00,CLR,,0.00,WeatherDisplay:10.37,2013-04-21 12:47:00,
2013-04-21 08:52:00,39.9,19.2,30.52,NNW,327,5.2,8.1,43,0.00,CLR,,0.00,WeatherDisplay:10.37,2013-04-21 12:52:00,
2013-04-21 08:57:00,40.2,17.8,30.52,NW,324,9.0,12.7,40,0.00,CLR,,0.00,WeatherDisplay:10.37,2013-04-21 12:57:00,
2013-04-21 09:02:00,40.5,17.5,30.52,NW,314,10.7,13.8,39,0.00,CLR,,0.00,WeatherDisplay:10.37,2013-04-21 13:02:00,
2013-04-21 09:07:00,40.3,18.4,30.52,NNW,341,5.3,11.5,41,0.00,CLR,,0.00,WeatherDisplay:10.37,2013-04-21 13:07:00,
2013-04-21 09:12:00,40.6,17.5,30.53,West,271,6.5,11.5,39,0.00,CLR,,0.00,WeatherDisplay:10.37,2013-04-21 13:12:00,
2013-04-21 09:17:00,41.0,19.6,30.52,NW,320,5.8,10.4,42,0.00,CLR,,0.00,WeatherDisplay:10.37,2013-04-21 13:17:00,
2013-04-21 09:22:00,41.5,18.9,30.52,North,0,5.5,7.0,40,0.00,CLR,,0.00,WeatherDisplay:10.37,2013-04-21 13:22:00,
2013-04-21 09:27:00,41.2,18.7,30.52,NW,323,5.4,6.0,40,0.00,CLR,,0.00,WeatherDisplay:10.37,2013-04-21 13:27:00,
2013-04-21 09:32:00,41.0,18.5,30.53,West,279,10.3,13.8,40,0.00,CLR,,0.00,WeatherDisplay:10.37,2013-04-21 13:32:00,
2013-04-21 09:37:00,41.5,18.9,30.53,NW,326,9.1,12.7,40,0.00,CLR,,0.00,WeatherDisplay:10.37,2013-04-21 13:37:00,
2013-04-21 09:42:00,41.6,19.0,30.53,WNW,292,9.8,17.3,40,0.00,CLR,,0.00,WeatherDisplay:10.37,2013-04-21 13:42:00,
2013-04-21 09:47:00,41.8,19.2,30.53,West,261,6.3,11.5,40,0.00,CLR,,0.00,WeatherDisplay:10.37,2013-04-21 13:47:00,
2013-04-21 09:52:00,41.3,16.9,30.53,NW,316,10.6,13.8,37,0.00,CLR,,0.00,WeatherDisplay:10.37,2013-04-21 13:52:00,
2013-04-21 09:57:00,40.9,17.8,30.54,NW,321,8.7,15.0,39,0.00,CLR,,0.00,WeatherDisplay:10.37,2013-04-21 13:57:00,
2013-04-21 10:02:00,40.8,18.3,30.54,NNE,29,6.1,9.2,40,0.00,CLR,,0.00,WeatherDisplay:10.37,2013-04-21 14:02:00,
2013-04-21 10:07:00,40.9,20.6,30.54,NNW,331,6.3,10.4,44,0.00,CLR,,0.00,WeatherDisplay:10.37,2013-04-21 14:07:00,
2013-04-21 10:12:00,41.8,19.2,30.54,NW,310,11.6,16.0,40,0.00,CLR,,0.00,WeatherDisplay:10.37,2013-04-21 14:12:00,
2013-04-21 10:17:00,41.9,21.5,30.55,NW,309,9.1,12.0,44,0.00,CLR,,0.00,WeatherDisplay:10.37,2013-04-21 14:17:00,
2013-04-21 10:22:00,42.6,21.6,30.55,NW,309,10.0,17.3,43,0.00,CLR,,0.00,WeatherDisplay:10.37,2013-04-21 14:22:00,
2013-04-21 10:27:00,42.6,21.6,30.55,WNW,293,10.5,13.8,43,0.00,CLR,,0.00,WeatherDisplay:10.37,2013-04-21 14:27:00,
2013-04-21 10:32:00,42.5,19.8,30.55,NNE,32,6.6,10.4,40,0.00,CLR,,0.00,WeatherDisplay:10.37,2013-04-21 14:32:00,
2013-04-21 10:37:00,42.2,19.0,30.55,North,4,8.6,12.7,39,0.00,CLR,,0.00,WeatherDisplay:10.37,2013-04-21 14:37:00,
2013-04-21 10:42:00,42.8,21.3,30.55,NW,307,9.0,13.8,42,0.00,CLR,,0.00,WeatherDisplay:10.37,2013-04-21 14:42:00,
2013-04-21 10:47:00,43.0,20.9,30.55,North,1,5.8,12.7,41,0.00,CLR,,0.00,WeatherDisplay:10.37,2013-04-21 14:47:00,
2013-04-21 10:52:00,43.8,22.2,30.55,SW,223,8.8,12.7,42,0.00,CLR,,0.00,WeatherDisplay:10.37,2013-04-21 14:52:00,
2013-04-21 10:57:00,43.9,19.9,30.55,WNW,292,5.1,8.1,38,0.00,CLR,,0.00,WeatherDisplay:10.37,2013-04-21 14:57:00,
2013-04-21 11:02:00,44.5,21.0,30.55,NNE,25,9.8,12.7,39,0.00,CLR,,0.00,WeatherDisplay:10.37,2013-04-21 15:02:00,
2013-04-21 11:07:00,44.6,20.5,30.55,NW,313,12.1,16.1,38,0.00,CLR,,0.00,WeatherDisplay:10.37,2013-04-21 15:07:00,
2013-04-21 11:12:00,44.3,19.0,30.55,NNE,15,16.4,19.6,36,0.00,CLR,,0.00,WeatherDisplay:10.37,2013-04-21 15:12:00,
2013-04-21 11:17:00,43.8,18.5,30.56,North,354,7.7,13.8,36,0.00,CLR,,0.00,WeatherDisplay:10.37,2013-04-21 15:17:00,
2013-04-21 11:22:00,43.6,19.6,30.56,North,1,9.7,17.0,38,0.00,CLR,,0.00,WeatherDisplay:10.37,2013-04-21 15:22:00,
2013-04-21 11:27:00,43.9,20.5,30.56,NNW,331,7.3,11.5,39,0.00,CLR,,0.00,WeatherDisplay:10.37,2013-04-21 15:27:00,
2013-04-21 11:32:00,44.6,19.9,30.56,North,0,8.7,12.7,37,0.00,CLR,,0.00,WeatherDisplay:10.37,2013-04-21 15:32:00,
2013-04-21 11:37:00,44.6,21.1,30.56,NNW,333,8.9,11.5,39,0.00,CLR,,0.00,WeatherDisplay:10.37,2013-04-21 15:37:00,
2013-04-21 11:42:00,45.1,18.4,30.56,North,2,12.1,18.4,34,0.00,CLR,,0.00,WeatherDisplay:10.37,2013-04-21 15:42:00,
2013-04-21 11:47:00,45.2,22.9,30.56,WNW,302,8.9,13.0,41,0.00,CLR,,0.00,WeatherDisplay:10.37,2013-04-21 15:47:00,
2013-04-21 11:52:00,45.7,18.9,30.56,WNW,293,5.8,11.5,34,0.00,CLR,,0.00,WeatherDisplay:10.37,2013-04-21 15:52:00,
2013-04-21 11:57:00,45.8,19.0,30.56,NNW,329,10.0,12.7,34,0.00,CLR,,0.00,WeatherDisplay:10.37,2013-04-21 15:57:00,
2013-04-21 12:02:00,45.8,17.6,30.56,North,1,10.1,13.8,32,0.00,CLR,,0.00,WeatherDisplay:10.37,2013-04-21 16:02:00,
2013-04-21 12:07:00,45.7,21.5,30.56,NNW,330,11.1,17.3,38,0.00,CLR,,0.00,WeatherDisplay:10.37,2013-04-21 16:07:00,
2013-04-21 12:12:00,46.5,21.6,30.56,NNW,330,5.4,9.2,37,0.00,CLR,,0.00,WeatherDisplay:10.37,2013-04-21 16:12:00,
2013-04-21 12:17:00,47.0,20.0,30.56,North,350,10.4,13.8,34,0.00,CLR,,0.00,WeatherDisplay:10.37,2013-04-21 16:17:00,
2013-04-21 12:22:00,46.8,17.7,30.56,NNW,336,8.9,12.7,31,0.00,CLR,,0.00,WeatherDisplay:10.37,2013-04-21 16:22:00,
2013-04-21 12:27:00,46.8,21.9,30.56,North,9,12.1,18.4,37,0.00,CLR,,0.00,WeatherDisplay:10.37,2013-04-21 16:27:00,
2013-04-21 12:32:00,46.8,21.9,30.56,NW,309,7.4,13.8,37,0.00,CLR,,0.00,WeatherDisplay:10.37,2013-04-21 16:32:00,
2013-04-21 12:37:00,47.4,24.3,30.56,WNW,302,7.9,11.5,40,0.00,CLR,,0.00,WeatherDisplay:10.37,2013-04-21 16:37:00,
2013-04-21 12:42:00,47.6,21.9,30.56,NNW,329,4.4,8.1,36,0.00,CLR,,0.00,WeatherDisplay:10.37,2013-04-21 16:42:00,
2013-04-21 12:47:00,47.3,18.9,30.56,North,350,6.3,12.7,32,0.00,CLR,,0.00,WeatherDisplay:10.37,2013-04-21 16:47:00,
2013-04-21 12:52:00,47.0,19.3,30.55,NW,324,7.3,12.7,33,0.00,CLR,,0.00,WeatherDisplay:10.37,2013-04-21 16:52:00,
2013-04-21 12:57:00,47.1,20.1,30.55,WNW,299,5.1,11.5,34,0.00,CLR,,0.00,WeatherDisplay:10.37,2013-04-21 16:57:00,
2013-04-21 13:02:00,48.3,23.8,30.55,NW,317,11.7,16.1,38,0.00,CLR,,0.00,WeatherDisplay:10.37,2013-04-21 17:02:00,
2013-04-21 13:07:00,48.6,20.8,30.55,NNW,341,7.7,11.5,33,0.00,CLR,,0.00,WeatherDisplay:10.37,2013-04-21 17:07:00,
2013-04-21 13:12:00,48.2,18.9,30.55,North,2,6.6,14.0,31,0.00,CLR,,0.00,WeatherDisplay:10.37,2013-04-21 17:12:00,
2013-04-21 13:17:00,47.9,18.7,30.55,North,2,4.7,11.5,31,0.00,CLR,,0.00,WeatherDisplay:10.37,2013-04-21 17:17:00,
2013-04-21 13:22:00,47.3,17.4,30.55,NW,305,5.1,11.5,30,0.00,CLR,,0.00,WeatherDisplay:10.37,2013-04-21 17:22:00,
2013-04-21 13:27:00,47.7,20.0,30.55,NNW,343,6.2,11.0,33,0.00,CLR,,0.00,WeatherDisplay:10.37,2013-04-21 17:27:00,
2013-04-21 13:32:00,48.2,22.5,30.55,NW,313,6.8,12.7,36,0.00,CLR,,0.00,WeatherDisplay:10.37,2013-04-21 17:32:00,
2013-04-21 13:37:00,49.1,22.6,30.55,NNW,345,9.1,11.5,35,0.00,CLR,,0.00,WeatherDisplay:10.37,2013-04-21 17:37:00,
2013-04-21 13:42:00,49.3,21.4,30.55,WNW,297,9.2,11.5,33,0.00,CLR,,0.00,WeatherDisplay:10.37,2013-04-21 17:42:00,
2013-04-21 13:47:00,49.6,25.6,30.55,WNW,295,5.6,6.9,39,0.00,CLR,,0.00,WeatherDisplay:10.37,2013-04-21 17:47:00,
2013-04-21 13:52:00,49.5,18.5,30.55,NW,324,8.3,12.7,29,0.00,CLR,,0.00,WeatherDisplay:10.37,2013-04-21 17:52:00,
2013-04-21 13:57:00,49.3,19.9,30.55,NNW,344,7.0,11.5,31,0.00,CLR,,0.00,WeatherDisplay:10.37,2013-04-21 17:57:00,
2013-04-21 14:02:00,49.6,25.0,30.55,NW,312,2.7,8.1,38,0.00,CLR,,0.00,WeatherDisplay:10.37,2013-04-21 18:02:00,
2013-04-21 14:07:00,50.2,21.4,30.55,North,0,10.7,16.1,32,0.00,CLR,,0.00,WeatherDisplay:10.37,2013-04-21 18:07:00,
2013-04-21 14:12:00,50.1,18.2,30.55,North,11,2.1,4.6,28,0.00,CLR,,0.00,WeatherDisplay:10.37,2013-04-21 18:12:00,
2013-04-21 14:17:00,50.5,20.9,30.55,NW,321,8.9,11.5,31,0.00,CLR,,0.00,WeatherDisplay:10.37,2013-04-21 18:17:00,
2013-04-21 14:22:00,51.1,23.7,30.55,West,259,7.7,11.5,34,0.00,CLR,,0.00,WeatherDisplay:10.37,2013-04-21 18:22:00,
2013-04-21 14:27:00,51.1,19.9,30.55,North,353,6.3,11.5,29,0.00,CLR,,0.00,WeatherDisplay:10.37,2013-04-21 18:27:00,
2013-04-21 14:32:00,51.3,20.9,30.55,North,350,2.5,4.6,30,0.00,CLR,,0.00,WeatherDisplay:10.37,2013-04-21 18:32:00,
2013-04-21 14:37:00,51.3,18.4,30.55,NNW,341,7.1,12.0,27,0.00,CLR,,0.00,WeatherDisplay:10.37,2013-04-21 18:37:00,
2013-04-21 14:42:00,51.4,21.0,30.55,WNW,303,9.3,12.7,30,0.00,CLR,,0.00,WeatherDisplay:10.37,2013-04-21 18:42:00,
2013-04-21 14:47:00,51.7,22.8,30.55,North,353,10.2,19.6,32,0.00,CLR,,0.00,WeatherDisplay:10.37,2013-04-21 18:47:00,
2013-04-21 14:52:00,51.9,18.0,30.55,NW,317,5.8,10.4,26,0.00,CLR,,0.00,WeatherDisplay:10.37,2013-04-21 18:52:00,
2013-04-21 14:57:00,51.9,16.2,30.54,NNW,345,7.8,11.5,24,0.00,CLR,,0.00,WeatherDisplay:10.37,2013-04-21 18:57:00,
2013-04-21 15:02:00,51.9,19.8,30.55,NNW,334,9.0,12.7,28,0.00,CLR,,0.00,WeatherDisplay:10.37,2013-04-21 19:02:00,
2013-04-21 15:07:00,51.6,17.8,30.55,WNW,303,10.2,12.7,26,0.00,CLR,,0.00,WeatherDisplay:10.37,2013-04-21 19:07:00,
2013-04-21 15:12:00,51.6,17.8,30.55,NW,316,7.8,10.4,26,0.00,CLR,,0.00,WeatherDisplay:10.37,2013-04-21 19:12:00,
2013-04-21 15:17:00,51.6,17.8,30.55,WNW,282,5.8,11.5,26,0.00,CLR,,0.00,WeatherDisplay:10.37,2013-04-21 19:17:00,
2013-04-21 15:22:00,52.2,19.2,30.55,NNW,330,8.6,18.4,27,0.00,CLR,,0.00,WeatherDisplay:10.37,2013-04-21 19:22:00,
2013-04-21 15:27:00,52.5,16.7,30.55,North,351,10.9,17.3,24,0.00,CLR,,0.00,WeatherDisplay:10.37,2013-04-21 19:27:00,
2013-04-21 15:32:00,51.9,17.1,30.55,WNW,283,3.8,7.0,25,0.00,CLR,,0.00,WeatherDisplay:10.37,2013-04-21 19:32:00,
2013-04-21 15:37:00,52.2,16.4,30.55,NNE,22,6.7,9.2,24,0.00,CLR,,0.00,WeatherDisplay:10.37,2013-04-21 19:37:00,
2013-04-21 15:42:00,52.3,16.5,30.55,NNW,329,5.6,11.5,24,0.00,CLR,,0.00,WeatherDisplay:10.37,2013-04-21 19:42:00,
2013-04-21 15:47:00,52.0,15.3,30.55,NW,320,4.8,11.0,23,0.00,CLR,,0.00,WeatherDisplay:10.37,2013-04-21 19:47:00,
2013-04-21 15:52:00,52.5,20.3,30.55,WNW,302,10.6,14.0,28,0.00,CLR,,0.00,WeatherDisplay:10.37,2013-04-21 19:52:00,
2013-04-21 15:57:00,52.5,15.7,30.55,NNE,14,3.7,10.4,23,0.00,CLR,,0.00,WeatherDisplay:10.37,2013-04-21 19:57:00,
2013-04-21 16:02:00,52.3,13.5,30.55,WNW,285,6.8,11.5,21,0.00,CLR,,0.00,WeatherDisplay:10.37,2013-04-21 20:02:00,
2013-04-21 16:07:00,52.0,15.3,30.55,WNW,296,4.7,11.5,23,0.00,CLR,,0.00,WeatherDisplay:10.37,2013-04-21 20:07:00,
2013-04-21 16:12:00,52.2,14.4,30.55,North,358,8.6,11.5,22,0.00,CLR,,0.00,WeatherDisplay:10.37,2013-04-21 20:12:00,
2013-04-21 16:17:00,51.7,13.0,30.55,NNW,327,8.3,11.5,21,0.00,CLR,,0.00,WeatherDisplay:10.37,2013-04-21 20:17:00,
2013-04-21 16:22:00,51.9,15.2,30.55,NNW,348,5.4,11.0,23,0.00,CLR,,0.00,WeatherDisplay:10.37,2013-04-21 20:22:00,
2013-04-21 16:27:00,51.9,16.2,30.55,NNW,344,8.2,11.5,24,0.00,CLR,,0.00,WeatherDisplay:10.37,2013-04-21 20:27:00,
2013-04-21 16:32:00,52.0,17.2,30.55,NW,326,9.3,12.0,25,0.00,CLR,,0.00,WeatherDisplay:10.37,2013-04-21 20:32:00,
2013-04-21 16:37:00,52.0,15.3,30.55,NE,48,8.7,12.7,23,0.00,CLR,,0.00,WeatherDisplay:10.37,2013-04-21 20:37:00,
2013-04-21 16:42:00,51.9,15.2,30.55,NNW,341,4.2,7.0,23,0.00,CLR,,0.00,WeatherDisplay:10.37,2013-04-21 20:42:00,
2013-04-21 16:47:00,52.2,11.1,30.55,NE,49,5.0,12.0,19,0.00,CLR,,0.00,WeatherDisplay:10.37,2013-04-21 20:47:00,
2013-04-21 16:52:00,52.2,12.3,30.55,NNW,329,7.3,10.4,20,0.00,CLR,,0.00,WeatherDisplay:10.37,2013-04-21 20:52:00,
2013-04-21 16:57:00,52.2,15.5,30.56,NNW,347,3.6,6.9,23,0.00,CLR,,0.00,WeatherDisplay:10.37,2013-04-21 20:57:00,
2013-04-21 17:02:00,52.0,15.3,30.56,NNW,343,7.1,11.5,23,0.00,CLR,,0.00,WeatherDisplay:10.37,2013-04-21 21:02:00,
2013-04-21 17:07:00,51.9,13.1,30.56,NW,313,9.7,16.1,21,0.00,CLR,,0.00,WeatherDisplay:10.37,2013-04-21 21:07:00,
2013-04-21 17:12:00,51.6,13.9,30.56,NW,307,6.0,10.4,22,0.00,CLR,,0.00,WeatherDisplay:10.37,2013-04-21 21:12:00,
2013-04-21 17:17:00,51.3,12.6,30.56,North,353,3.3,5.8,21,0.00,CLR,,0.00,WeatherDisplay:10.37,2013-04-21 21:17:00,
2013-04-21 17:22:00,51.4,13.8,30.56,NW,312,9.3,11.5,22,0.00,CLR,,0.00,WeatherDisplay:10.37,2013-04-21 21:22:00,
2013-04-21 17:27:00,51.4,14.8,30.56,North,0,0.3,4.6,23,0.00,CLR,,0.00,WeatherDisplay:10.37,2013-04-21 21:27:00,
2013-04-21 17:32:00,51.3,14.7,30.56,NNW,340,7.1,12.0,23,0.00,CLR,,0.00,WeatherDisplay:10.37,2013-04-21 21:32:00,
2013-04-21 17:37:00,51.0,14.4,30.56,NW,323,7.4,13.8,23,0.00,CLR,,0.00,WeatherDisplay:10.37,2013-04-21 21:37:00,
2013-04-21 17:42:00,50.7,14.2,30.56,WNW,302,9.1,11.5,23,0.00,CLR,,0.00,WeatherDisplay:10.37,2013-04-21 21:42:00,
2013-04-21 17:47:00,50.4,12.9,30.57,WNW,295,8.9,12.7,22,0.00,CLR,,0.00,WeatherDisplay:10.37,2013-04-21 21:47:00,
2013-04-21 17:52:00,50.1,13.7,30.57,NW,307,5.3,6.9,23,0.00,CLR,,0.00,WeatherDisplay:10.37,2013-04-21 21:52:00,
2013-04-21 17:57:00,50.1,13.7,30.57,NW,307,4.3,6.9,23,0.00,CLR,,0.00,WeatherDisplay:10.37,2013-04-21 21:57:00,
2013-04-21 18:02:00,49.9,14.5,30.57,NNW,333,4.4,9.2,24,0.00,CLR,,0.00,WeatherDisplay:10.37,2013-04-21 22:02:00,
2013-04-21 18:07:00,49.9,12.5,30.57,North,0,1.3,3.5,22,0.00,CLR,,0.00,WeatherDisplay:10.37,2013-04-21 22:07:00,
2013-04-21 18:12:00,49.9,12.5,30.57,North,354,4.0,6.9,22,0.00,CLR,,0.00,WeatherDisplay:10.37,2013-04-21 22:12:00,
2013-04-21 18:17:00,49.8,12.4,30.58,WNW,300,5.8,10.4,22,0.00,CLR,,0.00,WeatherDisplay:10.37,2013-04-21 22:17:00,
2013-04-21 18:22:00,49.6,13.3,30.58,West,261,2.7,5.8,23,0.00,CLR,,0.00,WeatherDisplay:10.37,2013-04-21 22:22:00,
2013-04-21 18:27:00,49.6,14.2,30.58,WNW,300,4.8,7.0,24,0.00,CLR,,0.00,WeatherDisplay:10.37,2013-04-21 22:27:00,
2013-04-21 18:32:00,49.5,14.1,30.58,NNW,330,6.6,8.1,24,0.00,CLR,,0.00,WeatherDisplay:10.37,2013-04-21 22:32:00,
2013-04-21 18:37:00,49.2,12.9,30.58,NNW,329,3.9,6.0,23,0.00,CLR,,0.00,WeatherDisplay:10.37,2013-04-21 22:37:00,
2013-04-21 18:42:00,49.1,14.7,30.58,WNW,297,2.0,4.6,25,0.00,CLR,,0.00,WeatherDisplay:10.37,2013-04-21 22:42:00,
2013-04-21 18:47:00,48.8,13.5,30.59,NW,312,3.3,5.8,24,0.00,CLR,,0.00,WeatherDisplay:10.37,2013-04-21 22:47:00,
2013-04-21 18:52:00,48.6,14.3,30.59,NW,319,5.5,8.1,25,0.00,CLR,,0.00,WeatherDisplay:10.37,2013-04-21 22:52:00,
2013-04-21 18:57:00,48.3,14.1,30.59,NNW,343,2.7,4.6,25,0.00,CLR,,0.00,WeatherDisplay:10.37,2013-04-21 22:57:00,
2013-04-21 19:02:00,48.2,14.9,30.59,NW,320,2.4,4.6,26,0.00,CLR,,0.00,WeatherDisplay:10.37,2013-04-21 23:02:00,
2013-04-21 19:07:00,47.9,14.6,30.59,NW,313,1.9,4.6,26,0.00,CLR,,0.00,WeatherDisplay:10.37,2013-04-21 23:07:00,
2013-04-21 19:12:00,47.6,15.2,30.59,NW,310,4.5,6.9,27,0.00,CLR,,0.00,WeatherDisplay:10.37,2013-04-21 23:12:00,
2013-04-21 19:17:00,47.3,14.1,30.59,NW,324,1.3,2.3,26,0.00,CLR,,0.00,WeatherDisplay:10.37,2013-04-21 23:17:00,
2013-04-21 19:22:00,47.0,15.5,30.60,NNW,345,0.4,3.0,28,0.00,CLR,,0.00,WeatherDisplay:10.37,2013-04-21 23:22:00,
2013-04-21 19:27:00,46.7,15.3,30.60,NNW,345,0.3,1.2,28,0.00,CLR,,0.00,WeatherDisplay:10.37,2013-04-21 23:27:00,
2013-04-21 19:32:00,46.5,15.1,30.60,NNW,344,0.0,0.0,28,0.00,CLR,,0.00,WeatherDisplay:10.37,2013-04-21 23:32:00,
2013-04-21 19:37:00,46.1,14.8,30.60,NNW,345,0.0,0.0,28,0.00,CLR,,0.00,WeatherDisplay:10.37,2013-04-21 23:37:00,
2013-04-21 19:42:00,45.8,13.7,30.61,NNW,344,0.4,1.2,27,0.00,CLR,,0.00,WeatherDisplay:10.37,2013-04-21 23:42:00,
2013-04-21 19:47:00,45.4,14.9,30.61,NNW,345,0.0,1.2,29,0.00,CLR,,0.00,WeatherDisplay:10.37,2013-04-21 23:47:00,
2013-04-21 19:52:00,44.9,16.8,30.61,NNW,344,0.0,0.0,32,0.00,CLR,,0.00,WeatherDisplay:10.37,2013-04-21 23:52:00,
2013-04-21 19:57:00,44.3,19.0,30.61,NNW,345,0.0,0.0,36,0.00,CLR,,0.00,WeatherDisplay:10.37,2013-04-21 23:57:00,
2013-04-21 20:02:00,43.8,18.5,30.62,NNW,345,0.0,0.0,36,0.00,CLR,,0.00,WeatherDisplay:10.37,2013-04-22 00:02:00,
2013-04-21 20:07:00,43.3,18.7,30.62,NNW,344,0.0,0.0,37,0.00,CLR,,0.00,WeatherDisplay:10.37,2013-04-22 00:07:00,
2013-04-21 20:12:00,42.8,19.5,30.62,NNW,345,0.0,0.0,39,0.00,CLR,,0.00,WeatherDisplay:10.37,2013-04-22 00:12:00,
2013-04-21 20:17:00,42.2,19.6,30.63,NNW,345,0.0,0.0,40,0.00,CLR,,0.00,WeatherDisplay:10.37,2013-04-22 00:17:00,
2013-04-21 20:22:00,41.6,19.6,30.63,NNW,345,0.0,0.0,41,0.00,CLR,,0.00,WeatherDisplay:10.37,2013-04-22 00:22:00,
2013-04-21 20:27:00,41.2,19.2,30.63,NNW,345,0.0,0.0,41,0.00,CLR,,0.00,WeatherDisplay:10.37,2013-04-22 00:27:00,
2013-04-21 20:32:00,40.8,19.5,30.64,NNW,345,0.0,0.0,42,0.00,CLR,,0.00,WeatherDisplay:10.37,2013-04-22 00:32:00,
2013-04-21 20:37:00,40.3,19.5,30.64,NNW,345,0.0,0.0,43,0.00,CLR,,0.00,WeatherDisplay:10.37,2013-04-22 00:37:00,
2013-04-21 20:42:00,39.9,19.2,30.64,NNW,345,0.0,0.0,43,0.00,CLR,,0.00,WeatherDisplay:10.37,2013-04-22 00:42:00,
2013-04-21 20:47:00,39.6,20.0,30.64,NNW,345,0.0,0.0,45,0.00,CLR,,0.00,WeatherDisplay:10.37,2013-04-22 00:47:00,
2013-04-21 20:52:00,39.2,20.6,30.64,NNW,345,0.0,0.0,47,0.00,CLR,,0.00,WeatherDisplay:10.37,2013-04-22 00:52:00,
2013-04-21 20:57:00,38.8,20.3,30.65,NNW,345,0.0,0.0,47,0.00,CLR,,0.00,WeatherDisplay:10.37,2013-04-22 00:57:00,
2013-04-21 21:02:00,38.5,20.0,30.65,ESE,111,0.2,1.0,47,0.00,CLR,,0.00,WeatherDisplay:10.37,2013-04-22 01:02:00,
2013-04-21 21:07:00,38.0,20.0,30.66,ESE,113,0.0,1.0,48,0.00,CLR,,0.00,WeatherDisplay:10.37,2013-04-22 01:07:00,
2013-04-21 21:12:00,37.6,20.6,30.66,ESE,111,0.0,0.0,50,0.00,CLR,,0.00,WeatherDisplay:10.37,2013-04-22 01:12:00,
2013-04-21 21:17:00,37.3,21.3,30.66,ESE,111,0.0,0.0,52,0.00,CLR,,0.00,WeatherDisplay:10.37,2013-04-22 01:17:00,
2013-04-21 21:22:00,37.0,21.0,30.66,ESE,111,0.0,1.2,52,0.00,CLR,,0.00,WeatherDisplay:10.37,2013-04-22 01:22:00,
2013-04-21 21:27:00,36.9,21.3,30.67,ESE,111,0.0,0.0,53,0.00,CLR,,0.00,WeatherDisplay:10.37,2013-04-22 01:27:00,
2013-04-21 21:32:00,36.6,21.5,30.67,ESE,113,0.0,0.0,54,0.00,CLR,,0.00,WeatherDisplay:10.37,2013-04-22 01:32:00,
2013-04-21 21:37:00,36.3,21.7,30.67,ESE,111,0.3,1.2,55,0.00,CLR,,0.00,WeatherDisplay:10.37,2013-04-22 01:37:00,
2013-04-21 21:42:00,36.0,22.2,30.67,ESE,113,0.8,2.3,57,0.00,CLR,,0.00,WeatherDisplay:10.37,2013-04-22 01:42:00,
2013-04-21 21:47:00,35.7,22.4,30.67,ESE,111,0.1,1.2,58,0.00,CLR,,0.00,WeatherDisplay:10.37,2013-04-22 01:47:00,
2013-04-21 21:52:00,35.5,23.0,30.67,NNW,327,2.2,3.5,60,0.00,CLR,,0.00,WeatherDisplay:10.37,2013-04-22 01:52:00,
2013-04-21 21:57:00,35.3,23.2,30.67,NNW,327,0.0,0.0,61,0.00,CLR,,0.00,WeatherDisplay:10.37,2013-04-22 01:57:00,
2013-04-21 22:02:00,35.2,22.7,30.68,NNW,327,0.0,0.0,60,0.00,CLR,,0.00,WeatherDisplay:10.37,2013-04-22 02:02:00,
2013-04-21 22:07:00,34.9,22.8,30.67,NNW,327,0.0,0.0,61,0.00,CLR,,0.00,WeatherDisplay:10.37,2013-04-22 02:07:00,
2013-04-21 22:12:00,34.7,22.6,30.67,NNW,327,0.0,0.0,61,0.00,CLR,,0.00,WeatherDisplay:10.37,2013-04-22 02:12:00,
2013-04-21 22:17:00,34.4,22.3,30.68,NNW,327,0.0,0.0,61,0.00,CLR,,0.00,WeatherDisplay:10.37,2013-04-22 02:17:00,
2013-04-21 22:22:00,34.3,22.6,30.68,NNW,327,0.0,0.0,62,0.00,CLR,,0.00,WeatherDisplay:10.37,2013-04-22 02:22:00,
2013-04-21 22:27:00,34.0,23.1,30.68,NNW,327,0.0,0.0,64,0.00,CLR,,0.00,WeatherDisplay:10.37,2013-04-22 02:27:00,
2013-04-21 22:32:00,33.7,23.2,30.68,NNW,327,0.0,0.0,65,0.00,CLR,,0.00,WeatherDisplay:10.37,2013-04-22 02:32:00,
2013-04-21 22:37:00,33.4,23.3,30.68,NNW,329,0.0,0.0,66,0.00,CLR,,0.00,WeatherDisplay:10.37,2013-04-22 02:37:00,
2013-04-21 22:42:00,33.2,23.1,30.68,NNW,327,0.2,1.2,66,0.00,CLR,,0.00,WeatherDisplay:10.37,2013-04-22 02:42:00,
2013-04-21 22:47:00,32.9,23.5,30.68,NNW,327,0.0,0.0,68,0.00,CLR,,0.00,WeatherDisplay:10.37,2013-04-22 02:47:00,
2013-04-21 22:52:00,32.8,23.4,30.68,NNW,327,0.0,0.0,68,0.00,CLR,,0.00,WeatherDisplay:10.37,2013-04-22 02:52:00,
2013-04-21 22:57:00,32.6,23.6,30.68,NNW,327,0.0,0.0,69,0.00,CLR,,0.00,WeatherDisplay:10.37,2013-04-22 02:57:00,
2013-04-21 23:02:00,32.5,23.8,30.69,NNW,327,0.0,0.0,70,0.00,CLR,,0.00,WeatherDisplay:10.37,2013-04-22 03:02:00,
2013-04-21 23:07:00,32.4,23.7,30.69,NNW,327,0.0,0.0,70,0.00,CLR,,0.00,WeatherDisplay:10.37,2013-04-22 03:07:00,
2013-04-21 23:12:00,32.2,23.8,30.69,NNW,327,0.0,0.0,71,0.00,CLR,,0.00,WeatherDisplay:10.37,2013-04-22 03:12:00,
2013-04-21 23:17:00,32.2,23.8,30.70,NNW,327,0.0,0.0,71,0.00,CLR,,0.00,WeatherDisplay:10.37,2013-04-22 03:17:00,
2013-04-21 23:22:00,31.9,23.6,30.70,NNW,327,0.0,0.0,71,0.00,CLR,,0.00,WeatherDisplay:10.37,2013-04-22 03:22:00,
2013-04-21 23:27:00,31.8,23.8,30.70,NNW,327,0.0,0.0,72,0.00,CLR,,0.00,WeatherDisplay:10.37,2013-04-22 03:27:00,
2013-04-21 23:32:00,31.6,23.6,30.70,NNW,327,0.0,0.0,72,0.00,CLR,,0.00,WeatherDisplay:10.37,2013-04-22 03:32:00,
2013-04-21 23:37:00,31.3,23.6,30.70,NNW,327,0.0,0.0,73,0.00,CLR,,0.00,WeatherDisplay:10.37,2013-04-22 03:37:00,
2013-04-21 23:42:00,31.2,23.5,30.70,NNW,327,0.0,0.0,73,0.00,CLR,,0.00,WeatherDisplay:10.37,2013-04-22 03:42:00,
2013-04-21 23:47:00,31.0,23.4,30.70,NNW,327,0.0,0.0,73,0.00,CLR,,0.00,WeatherDisplay:10.37,2013-04-22 03:47:00,
2013-04-21 23:52:00,30.7,23.7,30.70,NNW,327,0.0,0.0,75,0.00,CLR,,0.00,WeatherDisplay:10.37,2013-04-22 03:52:00,
2013-04-21 23:57:00,30.6,23.6,30.70,NNW,327,0.0,0.0,75,0.00,CLR,,0.00,WeatherDisplay:10.37,2013-04-22 03:57:00,